Back to catalog

COSMOS 1275 DEB

AlivePO
NORAD 42189·DEBRIS·🇷🇺 Russia

Launched Jun 4, 1981 from Plesetsk Cosmodrome

Loading…

Next Passes (next 24 hours)

TLE

AgingSource: Space-Track

Epoch: Sep 7, 2026, 05:47 UTC

1 42189U 81053TD  26250.24131656  .00000600  00000-0  60840-3 0  9991
2 42189  83.0165 232.6903 0121551 174.9641 185.2770 13.72270620620234

Track COSMOS 1275 DEB in real time with AllMySat

Download on the App Store